Home   Weather   Grafton   Past weeks
Flag for Australia

Past Weather in Grafton, New South Wales, Australia — Yesterday and Last 2 Weeks

Now
60 °F

Cool.


Feels Like: 60 °F
Forecast: 84 / 55 °F
Wind: 5 mph from West

Location: Yamba

Current Time: Oct 23, 2019 at 8:30:29 am

Latest Report: Oct 23, 2019 at 7:00 am


Visibility: N/A

Pressure: 30.24 "Hg

Humidity: 94%

Dew Point: 58 °F

Location of GraftonLocation

Past Weather in Grafton — Graph

°F

Grafton Temperature Yesterday

Maximum temperature yesterday: 72 °F (at 1:00 pm)
Minimum temperature yesterday: 56 °F (at 6:00 am)
Average temperature yesterday: 65 °F

High & Low Weather Summary for the Past Weeks

 TemperatureHumidityPressure
High80 °F (Oct 17, 1:00 pm)97% (Oct 8, 7:00 am)30.31 "Hg (Oct 8, 7:00 am)
Low54 °F (Oct 12, 9:00 am)43% (Oct 9, 9:00 am)29.63 "Hg (Oct 17, 4:00 pm)
Average66 °F77%30.03 "Hg
* Reported Oct 8 7:00 am — Oct 23 7:00 am, Grafton. Weather by CustomWeather, © 2019

Note: Actual official high and low records may vary slightly from our data, if they occured in-between our weather recording intervals... More about our weather records

Advertising

Grafton Weather History for the Previous 24 Hours

Scroll right to see more
 ConditionsComfort  
Time TempWeatherWind HumidityBarometerVisibility
7:00 am
Wed, Oct 23
60 °FCool.5 mph94%30.24 "HgN/A
6:00 am59 °FCool.7 mph96%30.22 "HgN/A
4:00 am60 °FCool.6 mph95%30.21 "HgN/A
3:00 am60 °FCool.6 mph94%30.22 "HgN/A
1:00 am63 °FMild.5 mph90%30.24 "HgN/A
12:00 am64 °FMild.6 mph88%30.27 "HgN/A
10:00 pm
Tue, Oct 22
66 °FMild.5 mph85%30.27 "HgN/A
9:00 pm67 °FMild.6 mph77%30.26 "HgN/A
7:00 pm68 °FMild.7 mph76%30.24 "HgN/A
6:00 pm69 °FMild.6 mph74%30.21 "HgN/A
4:00 pm71 °FMild.10 mph71%30.20 "HgN/A
3:00 pm71 °FMild.10 mph70%30.22 "HgN/A
1:00 pm72 °FMild.12 mph63%30.25 "HgN/A
12:00 pm71 °FMild.10 mph62%30.27 "HgN/A
10:00 am67 °FMild.5 mph67%30.30 "HgN/A
9:00 am64 °FMild.6 mph70%30.29 "HgN/A
Weather by CustomWeather, © 2019

See weather overview